Showing default

COSMOS 2507, 40920

Orbit data source: Space-Track

COSMOS 2507, 40920 is a payload satellite owned by VVKO VKS (CIS) in LEO that was launched on Wed, 23 Sep 2015 UTC via an ROKOT launch vehicle from the Plesetsk Missile And Space Complex (PKMTR). Payload-class satellites include a variety of spacecraft equipped with specific instruments for various scientific and technological missions. These include communications satellites like Starlink; space stations such as the ISS; scientific satellites like the Hubble; Earth observation satellites from companies like Planet Labs, Umbra, and HawkEye 360; GPS; miniature CubeSats for education and research; and military/defense satellites.

Loading next visibility...
Identifier
40920, 2015-050A
Orbit
LEO
Country
Flag of CISCIS
Related business
Manufacturer
Resehetnev ISS
Mission
Operational Defense Communications
Bus & Motor
STRELA-3M, Unknown motor
Mass
280 kg wet, 280 kg dry
Launch date (UTC)
2015-09-23 (10 years ago)
Launch vehicle
ROKOT
Launch site
Plesetsk Missile And Space Complex (PKMTR)
Object type
Payload
Rocket body
Debris
Shape & HBR
Cyl + 1 Ant, 3.5 m
Radar Cross Section
1.583 m², Large (>1 m²)

Expand to show TLE details & history
Last TLE update: 16 hours ago

TLE from 16 hours ago
0 COSMOS 2507
1 40920U 15050A   25310.26178716  .00000046  00000-0  26095-3 0  9990
2 40920  82.4946 218.4252 0010084 110.2201 249.9964 12.42917518459162
Epoch: 2025-11-06T06:16Z
TLE epoch observation values (Epoch: 2025-11-06T06:16:58.410Z)
Latitude
-0.00001°
Longitude
78.45919°
Altitude
1,499.682 km
Speed
7.113 km/s
True Right ascension
14h 33m 42s
True Declination
0° 00' 00"
Sunlit
Object was in daylight at epoch
Visualization orbit readout
Latitude
Unknown
Longitude
Unknown
Altitude
Unknown
Speed
Unknown
Apparent Right ascension
Unknown
Apparent Declination
Unknown
Sunlit
N/A
Visualization observer readout
Local Sidereal Time
18:13:44
Azimuth
Unknown
Elevation
Unknown
Doppler factor
Unknown
Orbital elements
Apogee altitude
1,499.547 km
Perigee altitude
1,483.675 km
Semi-major axis
7,869.748 km
Eccentricity
0.00101
Inclination
82.4946°
RAAN
218.4252°
Arg. of periapsis
110.2201°
True anomaly
249.88786°
Mean anomaly
249.9964°
Eccentric anomaly
249.94213°
Mean motion
3.10887 °/min
Orbital period
115.8 mins
BSTAR
0.00026095
Loading maneuver chart data...
Computing Atmospheric mass density...
Loading historical data...
Loading historical data...
Loading historical data...
Loading historical data...
Loading historical data...
Loading historical data...
Loading historical data...
Other satellites on launch #50 in the year 2015 (2015-09-23 UTC)

Documentation

Showing up to 5 results
|